Location: Clegg Observatory
(38.9178°N, 78.6069°W)
Time: 17:21:36
(UTC-04:00)

Cosmos 1151 Rocket - Visible Passes

Search period start: 05 May 2015 00:00
Search period end: 15 May 2015 00:00
Orbit: 593 x 617 km, 82.5° (Epoch: 05 May)

Date Brightness Start Highest point End Pass type
(mag) Time Alt. Az. Time Alt. Az. Time Alt. Az.
05 May 5.6 02:43:05 10° NE 02:45:25 15° ENE 02:47:02 13° E visible
05 May 3.4 04:19:11 10° NNW 04:23:21 44° W 04:23:52 42° WSW visible
06 May 5.0 02:55:14 10° NNE 02:58:45 24° ENE 02:59:35 23° E visible
06 May 4.1 04:32:40 10° NNW 04:36:19 26° W 04:36:26 26° W visible
07 May 4.1 03:07:51 10° N 03:11:58 40° ENE 03:12:12 40° E visible
07 May 4.8 04:46:37 10° NW 04:49:03 15° W 04:49:03 15° W visible
08 May 3.2 03:20:44 10° N 03:24:51 69° NE 03:24:51 69° NE visible
09 May 3.3 03:33:48 10° NNW 03:37:33 57° NW 03:37:33 57° NW visible
10 May 5.4 02:10:33 10° NNE 02:13:21 17° ENE 02:13:25 17° ENE visible
10 May 4.0 03:47:06 10° NNW 03:50:16 33° WNW 03:50:16 33° WNW visible
11 May 4.8 02:22:53 10° NNE 02:26:09 27° ENE 02:26:09 27° ENE visible
11 May 4.7 04:00:41 10° NW 04:03:00 20° WNW 04:03:00 20° WNW visible
12 May 4.2 02:35:35 10° N 02:38:55 40° NE 02:38:55 40° NE visible
12 May 5.3 04:14:53 10° WNW 04:15:46 12° WNW 04:15:46 12° WNW visible
13 May 3.9 02:48:31 10° N 02:51:43 47° N 02:51:43 47° N visible
14 May 5.8 01:26:22 10° NE 01:27:40 12° ENE 01:27:40 12° ENE visible
14 May 4.1 03:01:40 10° NNW 03:04:31 37° NW 03:04:31 37° NW visible
